Syracuse, NY

8:07 PM EDT on August 18, 2019 (GMT -0400)
Syracuse Hancock International

Weather History for KSYR - July, 2019

Change the Weather History Date:

Monday, July 22, 2019

  Actual Average Record
Temperature  
Mean Temperature 67 °F 72 °F  
Max Temperature 69 °F 82 °F 98 °F (2002)
Min Temperature 64 °F 61 °F 48 °F (1970)
Degree Days  
Heating Degree Days 0 0  
Month to date heating degree days 0 2  
Since 1 June heating degree days 47 63  
Since 1 July heating degree days 0 2  
Cooling Degree Days 2 7  
Month to date cooling degree days 225 146  
Year to date cooling degree days 321 289  
Since 1 June cooling degree days 308 259  
Growing Degree Days 18 (Base 50)    
Moisture  
Dew Point 62 °F    
Average Humidity 77    
Maximum Humidity 93    
Minimum Humidity 61    
Precipitation  
Precipitation 0.76 in 0.13 in 3.21 in (1928)
Month to date precipitation 2.09 2.70  
Year to date precipitation 24.13 19.94  
Snow  
Snow 0.00 in 0.00 in 0.00 in (2002)
Month to date snowfall 0.0 0.0  
Since 1 June snowfall 0.0 0.0  
Since 1 July snowfall 0.0 0.0  
Snow Depth 0.00 in    
Sea Level Pressure  
Sea Level Pressure 29.87 in    
Wind  
Wind Speed 3 mph (NE)    
Max Wind Speed 9 mph    
Max Gust Speed 11 mph    
Visibility 8 miles    
Events Rain    
T = Trace of Precipitation, MM = Missing Value Source: NWS Daily Summary

Daily Weather History Graph

Daily Weather History Graph

Search for Another Location

Airport or City:

Astronomy

Jul. 22, 2019 Rise Set
Actual Time 5:44 AM EDT 8:36 PM EDT
Civil Twilight 5:11 AM EDT 9:09 PM EDT
Nautical Twilight 4:28 AM EDT 9:52 PM EDT
Astronomical Twilight 3:39 AM EDT 10:41 PM EDT
Moon 11:48 PM EDT (7/22) 11:06 AM EDT (7/22)
Length of Visible Light 15h 58m
Length of Day
14h 51m
Waning Gibbous, 72% of the Moon is Illuminated
Jul 22
Waning Gibbous
Jul 24
Last Quarter
Jul 31
New
Aug 7
First Quarter
Aug 15
Full

Hourly Weather History & Observations

Time (EDT) Temp. Dew Point Humidity Pressure Visibility Wind Dir Wind Speed Gust Speed Precip Events Conditions
12:54 AM 69.1 °F 57.9 °F 68% 29.87 in 10.0 mi SW 5.8 mph - N/A   Partly Cloudy
1:54 AM 70.0 °F 57.0 °F 63% 29.87 in 10.0 mi Calm Calm - N/A   Scattered Clouds
2:54 AM 70.0 °F 59.0 °F 68% 29.89 in 10.0 mi South 3.5 mph - N/A   Mostly Cloudy
3:54 AM 71.1 °F 57.9 °F 63% 29.86 in 10.0 mi Calm Calm - N/A   Overcast
4:54 AM 68.0 °F 60.1 °F 76% 29.85 in 10.0 mi Calm Calm - N/A   Overcast
5:54 AM 66.9 °F 60.1 °F 79% 29.84 in 10.0 mi Calm Calm - N/A   Mostly Cloudy
6:54 AM 66.9 °F 60.1 °F 79% 29.85 in 10.0 mi East 3.5 mph - N/A   Overcast
7:54 AM 68.0 °F 60.1 °F 76% 29.88 in 10.0 mi Variable 3.5 mph - 0.00 in Rain Light Rain
8:54 AM 69.1 °F 63.0 °F 81% 29.90 in 10.0 mi WSW 3.5 mph - 0.01 in Rain Light Rain
9:42 AM 66.9 °F 63.0 °F 87% 29.92 in 2.5 mi West 6.9 mph - 0.10 in Rain Heavy Rain
9:54 AM 66.0 °F 63.0 °F 90% 29.91 in 3.0 mi Calm Calm - 0.22 in Rain Heavy Rain
10:40 AM 68.0 °F 64.0 °F 87% 29.91 in 6.0 mi Calm Calm - 0.09 in Rain Light Rain
10:54 AM 66.9 °F 63.0 °F 87% 29.90 in 9.0 mi NNE 4.6 mph - 0.09 in Rain Light Rain
11:41 AM 66.9 °F 64.0 °F 90% 29.91 in 3.0 mi NNE 3.5 mph - 0.09 in Rain Heavy Rain
11:54 AM 66.9 °F 64.0 °F 90% 29.90 in 3.0 mi NNE 4.6 mph - 0.16 in Rain Heavy Rain
12:10 PM 66.9 °F 64.0 °F 90% 29.90 in 3.0 mi East 3.5 mph - 0.09 in Rain Heavy Rain
12:45 PM 68.0 °F 64.9 °F 90% 29.89 in 8.0 mi NE 4.6 mph - 0.17 in Rain Light Rain
12:54 PM 68.0 °F 64.0 °F 87% 29.88 in 8.0 mi ENE 5.8 mph - 0.18 in Rain Light Rain
1:54 PM 68.0 °F 64.0 °F 87% 29.86 in 10.0 mi East 5.8 mph - 0.00 in Rain Light Rain
2:11 PM 68.0 °F 64.0 °F 87% 29.88 in 10.0 mi ENE 3.5 mph - 0.00 in   Overcast
2:25 PM 69.1 °F 64.0 °F 84% 29.87 in 10.0 mi ENE 5.8 mph - 0.00 in   Overcast
2:37 PM 69.1 °F 64.0 °F 84% 29.87 in 10.0 mi ENE 5.8 mph - 0.00 in Rain Light Rain
2:54 PM 68.0 °F 64.9 °F 90% 29.86 in 9.0 mi ENE 4.6 mph - 0.01 in Rain Light Rain
3:54 PM 68.0 °F 64.9 °F 90% 29.84 in 6.0 mi ENE 3.5 mph - 0.03 in Rain Light Rain
4:54 PM 68.0 °F 64.0 °F 87% 29.83 in 10.0 mi East 6.9 mph - 0.06 in Rain Light Rain
5:54 PM 68.0 °F 64.0 °F 87% 29.83 in 10.0 mi NNE 4.6 mph - 0.00 in Rain Light Rain
6:54 PM 66.9 °F 64.0 °F 90% 29.83 in 8.0 mi Calm Calm - 0.00 in Rain Light Rain
7:54 PM 66.9 °F 64.0 °F 90% 29.84 in 10.0 mi Calm Calm - 0.00 in   Overcast
8:54 PM 66.9 °F 64.0 °F 90% 29.85 in 4.0 mi NNW 3.5 mph - 0.00 in Rain Light Rain
9:54 PM 66.9 °F 63.0 °F 87% 29.86 in 10.0 mi North 4.6 mph - 0.00 in   Overcast
10:54 PM 66.0 °F 62.1 °F 87% 29.85 in 10.0 mi Calm Calm - N/A   Scattered Clouds
11:54 PM 64.9 °F 62.1 °F 90% 29.84 in 10.0 mi Calm Calm - 0.00 in   Mostly Cloudy